« Back
NWS Peachtree City, Ga » Text Product » GA Regional Weather Roundup


Printer-friendly Version
Current Version              Previous Versions:   1  2  3  4  5  6  7  8  9  

Regional Weather Roundup

001
ASUS42 KFFC 311203
RWRGA
WEATHER ROUNDUP FOR GEORGIA
NATIONAL WEATHER SERVICE PEACHTREE CITY GA
700 AM EST SAT JAN 31 2015

NOTE: "FAIR" INDICATES FEW OR NO CLOUDS BELOW 12,000 FEET WITH NO
SIGNIFICANT WEATHER AND/OR OBSTRUCTIONS TO VISIBILITY.

* = USE WITH CAUTION. THE STATIONS MARKED WITH AN ASTERISK MAY NOT
REPORT WEATHER SUCH AS PRECIPITATION, FOG, OR THUNDER AND ARE NOT
QUALITY CONTROLLED BY NWS.

THE REMARK "TC" DENOTES TEMPERATURE READING IN DEGREES CELSIUS.

GAZ001>058-311300-
NORTH GEORGIA

CITY           SKY/WX    TMP DP  RH WIND       PRES   REMARKS
ATLANTA        MOCLDY    29  19  66 CALM      30.33R
6HR MIN TEMP:  29; 6HR MAX TEMP:  35;

ATHENS         CLEAR     23  19  85 CALM      30.33S
6HR MIN TEMP:  23; 6HR MAX TEMP:  32;

CHAMBLEE       CLEAR     25  19  78 CALM      30.32R
6HR MIN TEMP:  25; 6HR MAX TEMP:  34;

PEACHTREE CITY PTCLDY    26  21  81 CALM      30.34S
6HR MIN TEMP:  25; 6HR MAX TEMP:  36;

ROME           CLOUDY    28  21  75 CALM      30.36R
6HR MIN TEMP:  25; 6HR MAX TEMP:  32;

WEST ATLANTA   PTCLDY    27  20  75 CALM      30.34R
6HR MIN TEMP:  26; 6HR MAX TEMP:  34;

GAINESVILLE    CLEAR     30  18  60 CALM      30.31S
6HR MIN TEMP:  27; 6HR MAX TEMP:  34;

CARTERSVILLE   MOCLDY    28  20  71 CALM      30.35S
6HR MIN TEMP:  24; 6HR MAX TEMP:  30;



CITY           SKY/WX    TMP DP  RH WIND       PRES   REMARKS
DALTON*        MOCLDY    28  21  74 CALM      30.35R
LAWRENCEVILLE* CLEAR     25  16  68 CALM      30.30
MARIETTA       MOCLDY    26  21  82 CALM      30.32R
KENNESAW*      MOCLDY    27  21  80 W6        30.34  WCI  20
$$

GAZ059>098-102>109-311300-
CENTRAL GEORGIA

CITY           SKY/WX    TMP DP  RH WIND       PRES   REMARKS
AUGUSTA-BUSH   CLEAR     22  18  85 CALM      30.37R
6HR MIN TEMP:  22; 6HR MAX TEMP:  31;

AUGUSTA-DANIEL CLEAR     33  18  53 N5        30.35R WCI  29
6HR MIN TEMP:  33; 6HR MAX TEMP:  39;

COLUMBUS       CLEAR     30  22  72 NE3       30.35R
6HR MIN TEMP:  29; 6HR MAX TEMP:  40;

MACON          CLEAR     25  23  92 W3        30.36R
6HR MIN TEMP:  25; 6HR MAX TEMP:  34;

ROBINS AFB     CLEAR     28  25  86 CALM      30.33R


CITY           SKY/WX    TMP DP  RH WIND       PRES   REMARKS
LAGRANGE*      CLEAR     28  24  85 CALM      30.35R
SYLVANIA*      CLEAR     28  26  94 CALM      30.36R
MILLEDGEVILLE* CLEAR     28  28 100 CALM      30.35S
$$

GAZ099>101-110>166-311300-
SOUTH GEORGIA

CITY           SKY/WX    TMP DP  RH WIND       PRES   REMARKS
SAVANNAH       CLEAR     31  25  78 CALM      30.36R
6HR MIN TEMP:  29; 6HR MAX TEMP:  37;

VALDOSTA       CLEAR     36  26  67 NE5       30.32R WCI  32
6HR MIN TEMP:  34; 6HR MAX TEMP:  44;

ALMA           CLEAR     34  24  67 N3        30.34R
6HR MIN TEMP:  33; 6HR MAX TEMP:  41;

ST SIMONS      CLEAR     39  34  82 N6        30.32R WCI  35
6HR MIN TEMP:  38; 6HR MAX TEMP:  44;

FT STEWART     CLEAR     32  24  73 N3        30.33R
ALBANY         CLEAR     32  24  72 CALM      30.36R
HUNTER AFB     CLEAR     36  24  63 VRB3      30.33R
MOODY AFB      CLEAR     34  25  71 NE7       30.31S WCI  27
BRUNSWICK      CLEAR     37  32  81 N3        30.33R


CITY           SKY/WX    TMP DP  RH WIND       PRES   REMARKS
BAINBRIDGE*    CLEAR     36  32  87 CALM      30.35R
MOULTRIE*      CLEAR     36  28  75 NE3       30.33R
VIDALIA*       CLEAR     32  27  80 NE3       30.34S
WAYCROSS*      CLEAR     38  30  72 NE3       30.33R
DOUGLAS*       FAIR      36  27  69 NE7       30.35S WCI  30
$$



USA.gov is the U.S. government's official web portal to all federal, state and local government web resources and services.